This is the latest recevied weather packets stored in our database for station/object K3FAZ. If no packets are shown the sender has not sent any weather packets the latest 10 day(s).
| Time | Temp. | Humidity | Pressure | Rain* | Wind** | Luminosity | Snow |
|---|---|---|---|---|---|---|---|
| 1777655609 | 10.56° C | 68% | 1014.3 hPa | 0 mm | - | 216 W/m² | - |
| 1777655306 | 10.56° C | 68% | 1014.3 hPa | 0 mm | - | 152 W/m² | - |
| 1777655003 | 10.56° C | 68% | 1014.3 hPa | 0 mm | - | 226 W/m² | - |
| 1777654700 | 10.56° C | 73% | 1014.5 hPa | 0 mm | - | 237 W/m² | - |
| 1777654398 | 10° C | 69% | 1014.6 hPa | 0 mm | - | 155 W/m² | - |
| 1777654095 | 10.56° C | 68% | 1014.5 hPa | 0 mm | - | 165 W/m² | - |
| 1777653794 | 10.56° C | 67% | 1014.7 hPa | 0 mm | - | 119 W/m² | - |
| 1777653489 | 10.56° C | 68% | 1014.9 hPa | 0 mm | - | 93 W/m² | - |
| 1777653186 | 10.56° C | 67% | 1014.9 hPa | 0 mm | - | 104 W/m² | - |
| 1777652882 | 10.56° C | 69% | 1015 hPa | 0 mm | - | 91 W/m² | - |
| 1777652579 | 10.56° C | 70% | 1014.7 hPa | 0 mm | - | 123 W/m² | - |
| 1777652275 | 10.56° C | 68% | 1015 hPa | 0 mm | - | 162 W/m² | - |
| 1777651973 | 10.56° C | 69% | 1015 hPa | 0 mm | - | 204 W/m² | - |
| 1777651669 | 10.56° C | 70% | 1015 hPa | 0 mm | - | 216 W/m² | - |
| 1777651367 | 10.56° C | 69% | 1015.2 hPa | 0 mm | - | 164 W/m² | - |
| 1777651064 | 10.56° C | 69% | 1015 hPa | 0 mm | - | 148 W/m² | - |
| 1777650761 | 10.56° C | 61% | 1015.1 hPa | 0 mm | - | 184 W/m² | - |
| 1777650458 | 10.56° C | 70% | 1015.3 hPa | 0 mm | - | 235 W/m² | - |
| 1777650154 | 10° C | 71% | 1015.3 hPa | 0 mm | - | 204 W/m² | - |
| 1777649852 | 10° C | 69% | 1015.3 hPa | 0 mm | - | 130 W/m² | - |
| 1777649549 | 10° C | 71% | 1015.3 hPa | 0 mm | - | 175 W/m² | - |
| 1777649246 | 10° C | 69% | 1015.3 hPa | 0 mm | - | 169 W/m² | - |
| 1777648942 | 10° C | 70% | 1015.5 hPa | 0 mm | - | 113 W/m² | - |
| 1777648640 | 10° C | 71% | 1015.4 hPa | 0 mm | - | 122 W/m² | - |
| 1777648336 | 10° C | 71% | 1015.2 hPa | 0 mm | - | 269 W/m² | - |
* Rain latest hour (hover to see other rain measurements)
** Current wind speed in m/s (hover to see current wind gust speed)